• Join FlightAware (Why Join?)
  • Login
  • US Flag GB Flag 
14:22 EDT


 

Airport Tracker/Info


-or-


 

Live Flight TrackerFlight Track Log ✈ AWE3418 ✈ 19-Apr-2013 ✈ KPHL - KMHT

Flight Track Log - Related Links

Times and Time Zones

All times are in EDT time to prevent confusion due to time zone crossing. See the AWE3418 flight status page for this flight to view local times or setup timezone preferences in your user account.

Time Position Orientation Groundspeed Altitude Reporting Facility
EDT Latitude Longitude Course Direction KTS MPH feet Rate Location/Type
18:46 39.8614 -75.2722 37° Northeast 158 182 800  Level FAA TRACON SMA TRACON (SMA)
18:47 39.8550 -75.2864 240° Southwest 131 151 1,800 2,100 Climbing FAA TRACON SMA TRACON (SMA)
18:47 39.8453 -75.2994 226° Southwest 164 189 2,200 1,800 Climbing FAA TRACON SMA TRACON (SMA)
18:47 39.8317 -75.3158 223° Southwest 180 207 3,000 1,620 Climbing FAA TRACON SMA TRACON (SMA)
18:48 39.8194 -75.3292 220° Southwest 190 219 3,300 1,500 Climbing FAA TRACON SMA TRACON (SMA)
18:48 39.8039 -75.3406 209° Southwest 206 237 4,000 2,700 Climbing FAA TRACON SMA TRACON (SMA)
18:48 39.7794 -75.3333 167° South 243 280 5,100 2,820 Climbing FAA TRACON SMA TRACON (SMA)
18:49 39.8167 -74.9449 90° East  Level FlightAware Approximate
18:49 39.7608 -75.3203 152° Southeast 258 297 5,900  Level FAA TRACON SMA TRACON (SMA)
18:49 39.7469 -75.2953 126° Southeast 290 334 6,700 2,520 Climbing FAA TRACON SMA TRACON (SMA)
18:49 39.7414 -75.2533 100° East 313 360 7,600 2,400 Climbing FAA TRACON SMA TRACON (SMA)
18:50 39.8122 -74.8442 105° East  Level FlightAware Approximate
18:50 39.7414 -75.2169 90° East 330 380 8,300  Level FAA TRACON SMA TRACON (SMA)
18:50 39.7447 -75.1728 84° East 328 377 9,400 2,820 Climbing FAA TRACON SMA TRACON (SMA)
18:50 39.7486 -75.1347 82° East 337 388 10,200 2,100 Climbing FAA TRACON SMA TRACON (SMA)
18:51 39.7925 -74.7459 105° East  Level FlightAware Approximate
18:51 39.7522 -75.1008 82° East 334 384 10,800  Level FAA TRACON SMA TRACON (SMA)
18:51 39.7578 -75.0503 82° East 348 400 11,500 1,800 Climbing FAA TRACON SMA TRACON (SMA)
18:51 39.7622 -75.0111 82° East 354 407 12,000 720 Climbing FAA TRACON SMA TRACON (SMA)
18:52 39.8163 -74.6671 37° Northeast  Level FlightAware Approximate
18:52 39.7664 -74.9719 82° East 356 410 12,000  Level FAA TRACON SMA TRACON (SMA)
18:52 39.7719 -74.9228 82° East 357 411 12,000  Level FAA TRACON SMA TRACON (SMA)
18:52 39.7761 -74.8861 82° East 355 409 12,000 120 Level FAA TRACON SMA TRACON (SMA)
18:53 39.7806 -74.8461 82° East 354 407 12,100 1,500 Climbing FAA TRACON SMA TRACON (SMA)
18:53 39.7850 -74.7967 83° East 353 406 13,000 2,220 Climbing FAA TRACON SMA TRACON (SMA)
18:53 39.7894 -74.7575 82° East 356 410 13,600 1,620 Climbing FAA TRACON SMA TRACON (SMA)
18:54 39.8014 -74.7189 68° East 374 430 14,100 1,920 Climbing FAA TRACON SMA TRACON (SMA)
18:54 39.8297 -74.6806 46° Northeast 384 442 14,900 1,620 Climbing FAA TRACON SMA TRACON (SMA)
18:55 39.8831 -74.6289 37° Northeast 396 456 15,800 1,560 Climbing FAA TRACON SMA TRACON (SMA)
18:55 39.9186 -74.5939 37° Northeast 402 463 16,500 1,800 Climbing FAA TRACON SMA TRACON (SMA)
18:55 39.9464 -74.5664 37° Northeast 404 465 17,000 1,500 Climbing FAA TRACON SMA TRACON (SMA)
18:56 39.9744 -74.5383 37° Northeast 410 472 17,500 1,740 Climbing FAA TRACON SMA TRACON (SMA)
18:56 40.0025 -74.5108 37° Northeast 414 476 18,200 1,020 Climbing FAA TRACON SMA TRACON (SMA)
18:56 40.0025 -74.5108 270° West 414 476 18,200 1,440 Level FAA TRACON SMA TRACON (SMA)
18:58 40.1742 -74.3431 37° Northeast 421 484 20,900 1,560 Climbing New York Center
18:59 40.2708 -74.2475 37° Northeast 426 490 22,200 1,380 Climbing New York Center
19:00 40.3775 -74.1656 30° Northeast 437 503 23,700 1,260 Climbing New York Center
19:01 40.4878 -74.0919 27° Northeast 437 503 24,800 1,140 Climbing New York Center
19:03 40.7819 -73.9092 25° Northeast 460 529 27,800 1,200 Climbing Boston Center
19:04 40.8997 -73.8350 25° Northeast 465 535 29,000 540 Climbing Boston Center
19:05 41.0192 -73.7606 25° Northeast 465 535 29,000  Level Boston Center
19:06 41.1506 -73.7550 North 454 522 29,000  Level Boston Center
19:07 41.2861 -73.7578 359° North 464 534 29,000  Level Boston Center
19:08 41.4194 -73.7606 359° North 469 540 29,000  Level Boston Center
19:09 41.5528 -73.7661 358° North 469 540 29,000  Level Boston Center
19:10 41.6861 -73.7689 359° North 474 545 29,000  Level Boston Center
19:11 41.7922 -73.7739 358° North 474 545 29,000  Level Boston Center
19:12 41.9381 -73.7825 357° North 474 545 29,000 -180 Level Boston Center
19:13 42.0736 -73.7797 North 474 545 28,700 -840 Descending Boston Center
19:14 42.2061 -73.6733 31° Northeast 481 554 27,400 -1,380 Descending Boston Center
19:15 42.2744 -73.5203 59° Northeast 461 531 26,000 -1,320 Descending Boston Center
19:16 42.3233 -73.4033 60° Northeast 399 459 24,800 -1,500 Descending Boston Center
19:17 42.4019 -73.2272 59° Northeast 436 502 23,000 -1,680 Descending Boston Center
19:18 42.4633 -73.0761 61° Northeast 446 513 21,500 -1,560 Descending Boston Center
19:19 42.5244 -72.9358 59° Northeast 440 506 20,000 -1,440 Descending Boston Center
19:21 42.5162 -72.8008 48° Northeast  Level FlightAware Approximate
19:21 42.6317 -72.6517 48° Northeast 427 491 17,200  Level Boston Center
19:22 42.6692 -72.5106 70° East 415 478 15,500 -1,680 Descending Boston Center
19:23 42.7067 -72.3722 70° East 403 464 13,900 -1,560 Descending Boston Center
19:24 42.7378 -72.2450 72° East 373 429 12,400 -1,500 Descending Boston Center
19:25 42.7708 -72.1206 70° East 345 397 10,900 -1,620 Descending Boston Center
19:26 42.8289 -72.0239 51° Northeast 328 377 9,200 -1,800 Descending Boston Center
19:27 42.8933 -71.9386 44° Northeast 323 372 7,400 -1,800 Descending Boston Center
19:28 42.9575 -71.8528 44° Northeast 317 365 5,700 -1,680 Descending Boston Center
19:29 43.0028 -71.7503 59° Northeast 317 365 4,100 -1,080 Descending Boston Center
19:30 43.0458 -71.6589 57° Northeast 302 348 3,600 -840 Descending Boston Center
19:31 43.0703 -71.5733 69° East 250 288 2,500 -600 Descending Boston Center
19:32 43.0614 -71.5108 101° East 177 204 2,500 -240 Level Boston Center
19:33 43.0258 -71.4914 158° South 138 159 2,100 -420 Descending Boston Center